Location: Moscow
(55.7500°N, 37.5830°E)
Time: 05:39:00
(UTC+03:00)

Vanguard 1 - Pass Details

Date: 09 December 2021
Orbit: 652 x 3830 km, 34.2° (Epoch: 21 January)

Event Time Altitude Azimuth Distance (km) Brightness Sun altitude
Rises 22:39:35 0° 216° (SW) 6,645 14.2 -52.1°
Enters shadow 22:42:44 - 211° (SSW) 6,208 14.0 -52.4°
Reaches altitude 10° 22:44:17 10° 207° (SSW) 6,015 - -52.5°
Maximum altitude 23:00:45 33° 154° (SSE) 5,164 - -53.9°
Drops below altitude 10° 23:19:10 10° 102° (ESE) 6,748 - -55.1°
Exits shadow 23:23:22 - 96° (E) 7,322 14.3 -55.4°
Sets 23:24:50 0° 94° (E) 7,530 14.4 -55.5°
